Location: C�mpuri de-Sus
(45.9500°N, 22.5500°E)
Time: 19:52:35
(UTC+00:00)

Cosmos 839 Rocket - Pass Details

Date: 04 December 2023
Orbit: 960 x 2093 km, 65.9° (Epoch: 20 February)

Event Time Altitude Azimuth Distance (km) Brightness Sun altitude
Exits shadow 22:58:28 11° 79° (E) 4,508 7.5 -65.1°
Drops below altitude 10° 22:59:44 10° 73° (ENE) 4,582 7.6 -65.0°
Sets 23:06:52 0° 46° (NE) 5,521 8.2 -64.5°
